This is the latest recevied weather packets stored in our database for station/object KI5RKU-09. If no packets are shown the sender has not sent any weather packets the latest 10 day(s).
| Time | Temp. | Humidity | Pressure | Rain* | Wind** | Luminosity | Snow |
|---|---|---|---|---|---|---|---|
| 1777498240 | 17.22° C | 76% | 1013.8 hPa | 0 mm | - | 72 W/m² | - |
| 1777497342 | 17.78° C | 77% | 1013.9 hPa | 0 mm | - | 100 W/m² | - |
| 1777495829 | 18.33° C | 72% | 1014.3 hPa | 0 mm | - | 97 W/m² | - |
| 1777494028 | 17.78° C | 74% | 1014.6 hPa | 0 mm | - | 195 W/m² | - |
| 1777493736 | 17.78° C | 75% | 1014.8 hPa | 0 mm | - | 202 W/m² | - |
| 1777491943 | 16.67° C | 76% | 1017.1 hPa | 0 mm | - | 7 W/m² | - |
| 1777490727 | 17.22° C | 76% | 1015.2 hPa | 0 mm | - | 40 W/m² | - |
| 1777488928 | 16.11° C | 79% | 1015.2 hPa | 0 mm | - | 46 W/m² | - |
| 1777485642 | 16.11° C | 77% | 1016.6 hPa | 0 mm | - | 32 W/m² | - |
| 1777483844 | 16.11° C | 78% | 1016.8 hPa | 0 mm | - | 23 W/m² | - |
| 1777482941 | 16.11° C | 78% | 1015.9 hPa | 0 mm | - | 54 W/m² | - |
| 1777482328 | 15.56° C | 79% | 1016 hPa | 0 mm | - | 77 W/m² | - |
| 1777481429 | 15.56° C | 80% | 1017 hPa | 0 mm | - | 26 W/m² | - |
| 1777481140 | 15.56° C | 80% | 1017 hPa | 0 mm | - | 16 W/m² | - |
| 1777480235 | 15° C | 81% | 1017 hPa | 0 mm | - | 19 W/m² | - |
| 1777478127 | 15° C | 81% | 1016.8 hPa | 0 mm | - | 44 W/m² | - |
| 1777477549 | 15° C | 82% | 1017.1 hPa | 0 mm | - | 21 W/m² | - |
| 1777477228 | 15° C | 82% | 1016.5 hPa | 0 mm | - | 37 W/m² | - |
| 1777476640 | 15° C | 80% | 1016.6 hPa | 0 mm | - | 58 W/m² | - |
| 1777476027 | 15.56° C | 77% | 1017.1 hPa | 0 mm | - | 30 W/m² | - |
| 1777474855 | 15° C | 77% | 1017 hPa | 0 mm | - | 18 W/m² | - |
| 1777473329 | 15° C | 78% | 1016.1 hPa | 0 mm | - | 28 W/m² | - |
| 1777471828 | 15° C | 77% | 1016.2 hPa | 0 mm | - | 18 W/m² | - |
| 1777471527 | 15° C | 77% | 1016.3 hPa | 0 mm | - | 14 W/m² | - |
| 1777468541 | 15° C | 75% | 1016 hPa | 0 mm | - | 9 W/m² | - |
* Rain latest hour (hover to see other rain measurements)
** Current wind speed in m/s (hover to see current wind gust speed)